NOAA 16 DEB, 41064

Orbit data source: Space-Track

NOAA 16 DEB, 41064 is space debris in SSO originally from a launch on Thu, 21 Sep 2000 UTC launched from the Air Force Western Test Range (AFWTR). Debris objects in space refer to the collection of defunct objects orbiting the Earth. Examples of debris include non-operational satellites, rocket bodies, and fragments generated from explosions, collisions, or faulty payload assembly.

Loading next visibility...
Identifier
41064, 2000-055X
Orbit
SSO
Country
Flag of USUS
Related business
Manufacturer
Unknown
Mission
Spacecraft
Bus & Motor
Unknown
Mass
Unknown
Launch date (UTC)
2000-09-21 (26 years ago)
Launch vehicle
Unknown
Launch site
Air Force Western Test Range (AFWTR)
Object type
Payload
Rocket body
Debris
Shape & HBR
Unknown shape, 0.1 m
Radar Cross Section
Medium (>0.1 m² and <1 m²)

Expand to show TLE details & history
Last TLE update: 2 days ago

TLE from 2 days ago
0 NOAA 16 DEB
1 41064U 00055X   26171.35873086  .00005530  00000-0  15544-2 0  9996
2 41064  98.8543 309.1859 0012666 207.2803 152.7724 14.46272605548453
Epoch: 2026-06-20T08:36Z
TLE epoch observation values (Epoch: 2026-06-20T08:36:34.346Z)
Latitude
0.00003°
Longitude
-88.53171°
Altitude
748.813 km
Speed
7.476 km/s
True Right ascension
20h 36m 44s
True Declination
0° 00' 00"
Sunlit
Object was in full shadow at epoch
Visualization orbit readout
Latitude
Unknown
Longitude
Unknown
Altitude
Unknown
Speed
Unknown
Apparent Right ascension
Unknown
Apparent Declination
Unknown
Sunlit
N/A
Visualization observer readout
Local Sidereal Time
21:57:39
Azimuth
Unknown
Elevation
Unknown
Doppler factor
Unknown
Orbital elements
Apogee altitude
743.989 km
Perigee altitude
725.97 km
Semi-major axis
7,113.116 km
Eccentricity
0.00127
Inclination
98.8543°
RAAN
309.1859°
Arg. of periapsis
207.2803°
True anomaly
152.83871°
Mean anomaly
152.7724°
Eccentric anomaly
152.80557°
Mean motion
3.61787 °/min
Orbital period
99.51 mins
BSTAR
0.0015544
Loading maneuver chart data...
Computing Atmospheric mass density...
Loading historical data...
Loading historical data...
Loading historical data...
Loading historical data...
Loading historical data...
Loading historical data...
Loading historical data...

Documentation

Showing up to 5 results
|